timestamp,wind_dir_avg,wind_spd_avg,wind_spd_max_dir,wind_spd_gust,battery_voltage,lat,long
2023-11-08 00:04:01+00:00,148.0,7.28,143.0,8.08,12.41,47.59359,-54.27349
2023-11-08 00:14:01+00:00,149.0,8.1,146.0,8.72,12.41,47.59359,-54.27349
2023-11-08 00:24:01+00:00,149.0,7.92,149.0,9.07,12.41,47.59359,-54.27349
2023-11-08 00:34:01+00:00,155.0,7.18,152.0,7.88,12.41,47.59359,-54.27349
2023-11-08 00:44:01+00:00,149.0,8.35,151.0,9.61,12.41,47.59359,-54.27349
2023-11-08 00:54:01+00:00,146.0,7.5,144.0,8.52,12.41,47.59359,-54.27349
2023-11-08 01:04:01+00:00,141.0,7.44,142.0,8.44,12.41,47.59359,-54.27349
2023-11-08 01:14:00+00:00,144.0,7.56,152.0,8.98,12.41,47.59359,-54.27349
2023-11-08 01:24:00+00:00,150.0,8.31,157.0,9.88,12.41,47.59359,-54.27349
2023-11-08 01:34:00+00:00,144.0,7.44,142.0,8.93,12.41,47.59359,-54.27349
2023-11-08 01:44:00+00:00,147.0,7.19,150.0,7.93,12.41,47.59359,-54.27349
2023-11-08 01:54:00+00:00,153.0,7.43,160.0,8.87,12.41,47.59359,-54.27349
2023-11-08 02:04:00+00:00,154.0,8.13,156.0,9.34,12.41,47.59359,-54.27349
2023-11-08 02:14:01+00:00,152.0,7.54,146.0,8.57,12.33,47.59359,-54.27349
2023-11-08 02:24:01+00:00,146.0,7.83,147.0,8.89,12.33,47.59359,-54.27349
2023-11-08 02:34:01+00:00,146.0,7.61,144.0,8.58,12.33,47.59359,-54.27349
2023-11-08 02:44:01+00:00,151.0,8.61,148.0,9.46,12.33,47.59359,-54.27349
2023-11-08 02:54:01+00:00,147.0,8.53,137.0,10.48,12.33,47.59359,-54.27349
2023-11-08 03:04:01+00:00,148.0,7.1,146.0,8.74,12.33,47.59359,-54.27349
2023-11-08 03:14:01+00:00,152.0,8.99,153.0,10.04,12.33,47.59359,-54.27349
2023-11-08 03:24:01+00:00,151.0,8.17,150.0,9.26,12.33,47.59359,-54.27349
2023-11-08 03:34:01+00:00,148.0,8.69,154.0,10.03,12.33,47.59359,-54.27349
2023-11-08 03:44:01+00:00,146.0,7.91,146.0,10.29,12.33,47.59359,-54.27349
2023-11-08 03:54:01+00:00,148.0,7.21,151.0,8.65,12.33,47.59359,-54.27349
2023-11-08 04:04:01+00:00,145.0,8.12,137.0,11.12,12.33,47.59359,-54.27349
2023-11-08 04:14:00+00:00,140.0,8.57,138.0,10.23,12.33,47.59359,-54.27349
2023-11-08 04:24:00+00:00,151.0,9.74,159.0,11.26,12.33,47.59359,-54.27349
2023-11-08 04:34:00+00:00,151.0,8.53,146.0,9.54,12.33,47.59359,-54.27349
2023-11-08 04:44:00+00:00,154.0,8.43,156.0,10.71,12.33,47.59359,-54.27349
2023-11-08 04:54:00+00:00,154.0,7.99,162.0,9.81,12.33,47.59359,-54.27349
2023-11-08 05:04:00+00:00,145.0,7.98,149.0,8.85,12.33,47.59359,-54.27349
2023-11-08 05:14:00+00:00,154.0,8.9,145.0,11.22,12.33,47.59359,-54.27349
2023-11-08 05:24:00+00:00,146.0,8.13,134.0,10.39,12.33,47.59359,-54.27349
2023-11-08 05:34:00+00:00,154.0,9.53,158.0,12.66,12.33,47.59359,-54.27349
2023-11-08 05:44:00+00:00,155.0,10.1,156.0,12.02,12.33,47.59359,-54.27349
2023-11-08 05:54:00+00:00,161.0,12.05,162.0,14.05,12.33,47.59359,-54.27349
2023-11-08 06:04:00+00:00,157.0,10.33,148.0,11.81,12.33,47.59359,-54.27349
2023-11-08 06:14:01+00:00,160.0,11.29,164.0,13.26,12.25,47.59359,-54.27349
2023-11-08 06:24:01+00:00,159.0,10.22,160.0,11.7,12.25,47.59359,-54.27349
2023-11-08 06:34:01+00:00,157.0,10.54,144.0,12.58,12.25,47.59359,-54.27349
2023-11-08 06:44:01+00:00,148.0,7.52,151.0,9.65,12.25,47.59359,-54.27349
2023-11-08 06:54:01+00:00,146.0,6.98,137.0,8.94,12.25,47.59359,-54.27349
2023-11-08 07:04:01+00:00,141.0,6.19,144.0,7.97,12.25,47.59359,-54.27349
2023-11-08 07:14:00+00:00,142.0,6.83,146.0,8.24,12.25,47.59359,-54.27349
2023-11-08 07:24:00+00:00,139.0,6.33,140.0,7.77,12.25,47.59359,-54.27349
2023-11-08 07:34:00+00:00,127.0,5.26,128.0,6.41,12.25,47.59359,-54.27349
2023-11-08 07:44:00+00:00,128.0,5.62,125.0,6.65,12.25,47.59359,-54.27349
2023-11-08 07:54:00+00:00,135.0,4.85,139.0,6.07,12.25,47.59359,-54.27349
2023-11-08 08:04:00+00:00,155.0,8.86,139.0,11.26,12.25,47.59359,-54.27349
2023-11-08 08:14:00+00:00,151.0,8.59,157.0,10.6,12.25,47.59359,-54.27349
2023-11-08 08:24:00+00:00,151.0,9.14,160.0,11.31,12.25,47.59359,-54.27349
2023-11-08 08:34:00+00:00,157.0,10.19,158.0,11.96,12.25,47.59359,-54.27349
2023-11-08 08:44:00+00:00,150.0,9.64,159.0,11.0,12.25,47.59359,-54.27349
2023-11-08 08:54:00+00:00,138.0,6.36,147.0,7.62,12.25,47.59359,-54.27349
2023-11-08 09:04:00+00:00,142.0,5.9,146.0,7.17,12.25,47.59359,-54.27349
2023-11-08 09:14:01+00:00,143.0,8.2,142.0,10.64,12.25,47.59359,-54.27349
2023-11-08 09:24:01+00:00,138.0,7.24,136.0,10.0,12.25,47.59359,-54.27349
2023-11-08 09:34:01+00:00,136.0,7.34,132.0,9.7,12.25,47.59359,-54.27349
2023-11-08 09:44:01+00:00,126.0,6.92,125.0,8.65,12.25,47.59359,-54.27349
2023-11-08 09:54:01+00:00,129.0,7.23,124.0,9.32,12.25,47.59359,-54.27349
2023-11-08 10:04:01+00:00,122.0,7.36,112.0,9.71,12.25,47.59359,-54.27349
2023-11-08 10:14:01+00:00,125.0,7.54,106.0,10.07,12.25,47.59359,-54.27349
2023-11-08 10:24:01+00:00,128.0,8.84,132.0,10.45,12.25,47.59359,-54.27349
2023-11-08 10:34:01+00:00,126.0,7.06,123.0,10.78,12.25,47.59359,-54.27349
2023-11-08 10:44:01+00:00,124.0,5.96,122.0,8.82,12.25,47.59359,-54.27349
2023-11-08 10:54:01+00:00,128.0,9.26,131.0,11.42,12.25,47.59359,-54.27349
2023-11-08 11:04:01+00:00,118.0,7.42,125.0,10.64,12.25,47.59359,-54.27349
2023-11-08 11:14:01+00:00,125.0,8.91,120.0,10.57,12.25,47.59359,-54.27349
2023-11-08 11:24:01+00:00,122.0,7.89,130.0,10.21,12.25,47.59359,-54.27349
2023-11-08 11:34:01+00:00,126.0,7.09,127.0,9.18,12.25,47.59359,-54.27349
2023-11-08 11:44:01+00:00,124.0,9.76,125.0,12.27,12.25,47.59359,-54.27349
2023-11-08 11:54:01+00:00,125.0,6.97,127.0,8.37,12.25,47.59359,-54.27349
2023-11-08 12:04:01+00:00,120.0,7.11,116.0,10.14,12.25,47.59359,-54.27349
2023-11-08 12:14:01+00:00,112.0,5.79,128.0,10.27,12.33,47.59359,-54.27349
2023-11-08 12:24:01+00:00,107.0,5.78,106.0,11.4,12.33,47.59359,-54.27349
2023-11-08 12:34:01+00:00,95.0,5.54,89.0,10.02,12.33,47.59359,-54.27349
2023-11-08 12:44:01+00:00,100.0,5.97,77.0,9.12,12.33,47.59359,-54.27349
2023-11-08 12:54:01+00:00,74.0,8.26,67.0,12.03,12.33,47.59359,-54.27349
2023-11-08 13:04:01+00:00,81.0,6.85,91.0,11.05,12.33,47.59359,-54.27349
2023-11-08 13:14:00+00:00,75.0,6.55,62.0,8.81,12.57,47.59359,-54.27349
2023-11-08 13:24:00+00:00,69.0,4.38,79.0,6.44,12.57,47.59359,-54.27349
2023-11-08 13:34:00+00:00,81.0,5.57,79.0,9.57,12.57,47.59359,-54.27349
2023-11-08 13:44:00+00:00,75.0,4.44,95.0,6.86,12.57,47.59359,-54.27349
2023-11-08 13:54:00+00:00,69.0,6.41,64.0,7.93,12.57,47.59359,-54.27349
2023-11-08 14:04:00+00:00,84.0,4.68,111.0,7.14,12.57,47.59359,-54.27349
2023-11-08 14:14:00+00:00,81.0,4.72,72.0,7.67,12.57,47.59359,-54.27349
2023-11-08 14:24:00+00:00,78.0,5.34,81.0,6.64,12.57,47.59359,-54.27349
2023-11-08 14:34:00+00:00,77.0,5.7,90.0,8.2,12.57,47.59359,-54.27349
2023-11-08 14:44:00+00:00,81.0,4.87,88.0,6.38,12.57,47.59359,-54.27349
2023-11-08 14:54:00+00:00,79.0,6.13,83.0,8.32,12.57,47.59359,-54.27349
2023-11-08 15:04:00+00:00,74.0,5.15,84.0,7.45,12.57,47.59359,-54.27349
2023-11-08 15:14:00+00:00,71.0,7.12,57.0,8.98,12.81,47.59359,-54.27349
2023-11-08 15:24:00+00:00,82.0,5.08,77.0,6.56,12.81,47.59359,-54.27349
2023-11-08 15:34:00+00:00,70.0,6.11,64.0,7.97,12.81,47.59359,-54.27349
2023-11-08 15:44:00+00:00,71.0,6.34,60.0,8.32,12.81,47.59359,-54.27349
2023-11-08 15:54:00+00:00,70.0,7.13,68.0,8.97,12.81,47.59359,-54.27349
2023-11-08 16:04:00+00:00,69.0,6.85,69.0,8.32,12.81,47.59359,-54.27349
2023-11-08 16:14:00+00:00,75.0,6.14,87.0,9.19,12.89,47.59359,-54.27349
2023-11-08 16:24:00+00:00,68.0,5.66,68.0,7.61,12.89,47.59359,-54.27349
2023-11-08 16:34:00+00:00,68.0,8.7,72.0,12.45,12.89,47.59359,-54.27349
2023-11-08 16:44:00+00:00,69.0,7.66,71.0,8.9,12.89,47.59359,-54.27349
2023-11-08 16:54:00+00:00,68.0,7.03,69.0,8.28,12.89,47.59359,-54.27349
2023-11-08 17:04:00+00:00,69.0,7.65,66.0,8.88,12.89,47.59359,-54.27349
2023-11-08 17:14:00+00:00,57.0,7.08,61.0,8.47,12.73,47.59359,-54.27349
2023-11-08 17:24:00+00:00,66.0,6.31,68.0,7.56,12.73,47.59359,-54.27349
2023-11-08 17:34:00+00:00,68.0,7.33,72.0,8.1,12.73,47.59359,-54.27349
2023-11-08 17:44:00+00:00,66.0,7.99,69.0,8.86,12.73,47.59359,-54.27349
2023-11-08 17:54:00+00:00,60.0,5.9,46.0,7.02,12.73,47.59359,-54.27349
2023-11-08 18:04:00+00:00,61.0,7.08,61.0,8.39,12.73,47.59359,-54.27349
2023-11-08 18:14:00+00:00,59.0,6.73,61.0,7.85,12.65,47.59359,-54.27349
2023-11-08 18:24:00+00:00,68.0,7.91,66.0,8.77,12.65,47.59359,-54.27349
2023-11-08 18:34:00+00:00,63.0,7.71,58.0,8.61,12.65,47.59359,-54.27349
2023-11-08 18:44:00+00:00,63.0,7.88,63.0,8.75,12.65,47.59359,-54.27349
2023-11-08 18:54:00+00:00,64.0,7.04,61.0,8.21,12.65,47.59359,-54.27349
2023-11-08 19:04:00+00:00,63.0,7.28,63.0,8.41,12.65,47.59359,-54.27349
2023-11-08 19:14:01+00:00,60.0,7.22,59.0,8.9,12.41,47.59359,-54.27349
2023-11-08 19:24:01+00:00,62.0,5.4,60.0,6.5,12.41,47.59359,-54.27349
2023-11-08 19:34:01+00:00,58.0,5.85,59.0,6.37,12.41,47.59359,-54.27349
2023-11-08 19:44:01+00:00,54.0,6.2,54.0,7.25,12.41,47.59359,-54.27349
2023-11-08 19:54:01+00:00,59.0,7.08,58.0,7.9,12.41,47.59359,-54.27349
2023-11-08 20:04:01+00:00,58.0,6.58,57.0,7.81,12.41,47.59359,-54.27349
2023-11-08 20:14:00+00:00,53.0,8.21,54.0,8.89,12.25,47.59359,-54.27349
2023-11-08 20:24:00+00:00,58.0,8.77,57.0,9.6,12.25,47.59359,-54.27349
2023-11-08 20:34:00+00:00,58.0,8.82,58.0,9.91,12.25,47.59359,-54.27349
2023-11-08 20:44:00+00:00,54.0,8.41,52.0,9.81,12.25,47.59359,-54.27349
2023-11-08 20:54:00+00:00,52.0,9.28,51.0,10.25,12.25,47.59359,-54.27349
2023-11-08 21:04:00+00:00,42.0,8.29,40.0,9.22,12.25,47.59359,-54.27349
2023-11-08 21:14:00+00:00,48.0,8.34,50.0,9.69,12.25,47.59359,-54.27349
2023-11-08 21:24:00+00:00,38.0,8.37,37.0,9.05,12.25,47.59359,-54.27349
2023-11-08 21:34:00+00:00,51.0,6.56,56.0,7.64,12.25,47.59359,-54.27349
2023-11-08 21:44:00+00:00,49.0,6.5,49.0,7.33,12.25,47.59359,-54.27349
2023-11-08 21:54:00+00:00,41.0,7.69,42.0,8.41,12.25,47.59359,-54.27349
2023-11-08 22:04:00+00:00,41.0,7.75,50.0,8.61,12.25,47.59359,-54.27349
2023-11-08 22:14:01+00:00,44.0,8.95,44.0,9.66,12.17,47.59359,-54.27349
2023-11-08 22:24:01+00:00,45.0,8.49,41.0,9.57,12.17,47.59359,-54.27349
2023-11-08 22:34:01+00:00,46.0,9.02,47.0,9.89,12.17,47.59359,-54.27349
2023-11-08 22:44:01+00:00,42.0,7.79,49.0,9.41,12.17,47.59359,-54.27349
2023-11-08 22:54:01+00:00,46.0,9.11,46.0,9.96,12.17,47.59359,-54.27349
2023-11-08 23:04:01+00:00,45.0,8.38,49.0,9.69,12.17,47.59359,-54.27349
2023-11-08 23:14:01+00:00,34.0,8.06,37.0,9.84,12.17,47.59359,-54.27349
2023-11-08 23:24:01+00:00,41.0,8.53,44.0,9.82,12.17,47.59359,-54.27349
2023-11-08 23:34:01+00:00,40.0,10.03,41.0,11.03,12.17,47.59359,-54.27349
2023-11-08 23:44:01+00:00,45.0,8.96,46.0,10.51,12.17,47.59359,-54.27349
2023-11-08 23:54:01+00:00,44.0,9.34,41.0,10.62,12.17,47.59359,-54.27349
